This demonstration page uses our WeatherBlox Daily Observations layout. Learn more.

Left ArrowRight Arrow

39.95238, -75.16362

Hourly Observations for April 22, 2022

Temp ( °F °C ) Dew Point ( °F °C ) Humidity (%) Winds ( mph kmh ) Pressure ( in mb ) Visibility ( mi km ) Precip ( " mm )
12:54 am 00:54 Partly Cloudy 54 12.2 43 6.1 67 67 W 3 6 30.36 1028 10 16 0.00 0.00
1:54 am 01:54 Partly Cloudy 53 11.7 44 6.7 72 72 SSW 3 6 30.36 1028 10 16 0.00 0.00
2:54 am 02:54 Clear 51 10.6 43 6.1 74 74 W 3 6 30.35 1028 10 16 0.00 0.00
3:54 am 03:54 Clear 49 9.4 42 5.6 77 77 WSW 3 6 30.35 1028 10 16 0.00 0.00
4:54 am 04:54 Mostly Clear 46 7.8 42 5.6 86 86 W 5 7 30.35 1028 10 16 0.00 0.00
5:54 am 05:54 Mostly Clear 47 8.3 43 6.1 86 86 Calm 30.35 1028 10 16 0.00 0.00
6:54 am 06:54 Mostly Sunny 46 7.8 43 6.1 89 89 W 3 6 30.37 1029 10 16 0.00 0.00
7:54 am 07:54 Mostly Sunny 51 10.6 44 6.7 77 77 WNW 3 6 30.39 1029 10 16 0.00 0.00
8:54 am 08:54 Mostly Sunny 58 14.4 47 8.3 67 67 NW 7 11 30.40 1030 10 16 0.00 0.00
9:54 am 09:54 Partly Cloudy 63 17.2 48 8.9 58 58 NNW 12 19 30.40 1030 10 16 0.00 0.00
10:54 am 10:54 Partly Cloudy 66 18.9 47 8.3 50 50 NNW 13 20 30.40 1030 10 16 0.00 0.00
11:54 am 11:54 Partly Cloudy 68 20 43 6.1 40 40 NNW 14 22 30.40 1029 10 16 0.00 0.00
12:54 pm 12:54 Mostly Cloudy 70 21.1 43 6.1 38 38 N 15 24 30.38 1029 10 16 0.00 0.00
1:54 pm 13:54 Mostly Cloudy 70 21.1 39 3.9 32 32 NW 12 19 30.38 1029 10 16 0.00 0.00
2:54 pm 14:54 Mostly Cloudy 71 21.7 38 3.3 30 30 NW 10 17 30.37 1028 10 16 0.00 0.00
3:54 pm 15:54 Partly Cloudy 71 21.7 38 3.3 30 30 NNW 13 20 30.35 1028 10 16 0.00 0.00
4:54 pm 16:54 Mostly Cloudy 70 21.1 36 2.2 29 29 NNW 12 19 30.35 1028 10 16 0.00 0.00
5:54 pm 17:54 Mostly Cloudy 71 21.7 35 1.7 27 27 NNW 14 22 30.35 1028 10 16 0.00 0.00
6:54 pm 18:54 Mostly Cloudy 67 19.4 34 1.1 30 30 NNW 9 15 30.35 1028 10 16 0.00 0.00
7:54 pm 19:54 Mostly Cloudy 63 17.2 32 0 31 31 N 10 17 30.36 1028 10 16 0.00 0.00
8:54 pm 20:54 Cloudy 61 16.1 33 0.6 35 35 NNW 7 11 30.37 1028 10 16 0.00 0.00
9:54 pm 21:54 Cloudy 62 16.7 31 -0.6 31 31 NNW 7 11 30.37 1029 10 16 0.00 0.00
10:54 pm 22:54 Cloudy 58 14.4 33 0.6 39 39 NW 5 7 30.39 1029 10 16 0.00 0.00
11:54 pm 23:54 Cloudy 55 12.8 34 1.1 45 45 NNE 3 6 30.40 1029 10 16 0.00 0.00

Powered by AerisWeather